When you browse on this site, cookies collect data to enhance your experience and personalize the content and advertising you see.
Visit our Privacy Policy to learn more. By continuing to use the site, you agree to this use of cookies and data.
  • In Latvia
  • List of Countries
  • For 7 days
  • Water Temperature
  • Satellite Maps
  • Weather Map
  • Weather Widgets
  • user-avatar
    Login

    Hourly Weather Czuszow

    Today, 21 February, Thursday

    Time Temperature Precipitation Wind Pressure Humidity
    00:00 +1°C° 0 mm 4 mps 743 mmHg 80%
    01:00 +2°C° 0 mm 3 mps 743 mmHg 82%
    02:00 +1°C° 0 mm 4 mps 743 mmHg 82%
    03:00 +1°C° 0 mm 4 mps 743 mmHg 81%
    04:00 +1°C° 0 mm 4 mps 743 mmHg 81%
    05:00 +1°C° 0 mm 4 mps 743 mmHg 80%
    06:00 +1°C° 0 mm 5 mps 743 mmHg 79%
    07:00 +2°C° 0 mm 5 mps 743 mmHg 79%
    08:00 +3°C° 0 mm 5 mps 743 mmHg 76%
    09:00 +3°C° 0 mm 5 mps 743 mmHg 73%
    10:00 +4°C° 0 mm 6 mps 743 mmHg 70%
    11:00 +5°C° 0 mm 6 mps 743 mmHg 66%
    12:00 +7°C° 0 mm 6 mps 742 mmHg 62%
    13:00 +8°C° 0 mm 6 mps 742 mmHg 59%
    14:00 +7°C° 0.1 mm 6 mps 742 mmHg 62%
    15:00 +7°C° 0.1 mm 5 mps 741 mmHg 66%
    16:00 +6°C° 0.1 mm 5 mps 741 mmHg 69%
    17:00 +6°C° 0.5 mm 5 mps 741 mmHg 73%
    18:00 +5°C° 0.5 mm 5 mps 741 mmHg 77%
    19:00 +5°C° 0.5 mm 5 mps 741 mmHg 80%
    20:00 +5°C° 0.6 mm 5 mps 740 mmHg 82%
    21:00 +5°C° 0.6 mm 5 mps 740 mmHg 83%
    22:00 +3°C° 0.6 mm 5 mps 740 mmHg 84%
    23:00 +3°C° 0.4 mm 5 mps 740 mmHg 85%

    Tomorrow, 22 February, Friday

    Time Temperature Precipitation Wind Pressure Humidity
    00:00 +3°C° 0.4 mm 5 mps 739 mmHg 86%
    01:00 +3°C° 0.4 mm 5 mps 739 mmHg 87%
    02:00 +3°C° 0.6 mm 5 mps 739 mmHg 88%
    03:00 +5°C° 0.6 mm 5 mps 739 mmHg 89%
    04:00 +5°C° 0.6 mm 5 mps 739 mmHg 90%
    05:00 +1°C° 0.8 mm 6 mps 740 mmHg 88%
    06:00 -2°C° 0.8 mm 7 mps 741 mmHg 86%
    07:00 -5°C° 0.8 mm 9 mps 741 mmHg 83%
    08:00 -5°C° 0.1 mm 8 mps 743 mmHg 78%
    09:00 -5°C° 0.1 mm 8 mps 744 mmHg 73%
    10:00 -4°C° 0.1 mm 7 mps 746 mmHg 68%
    11:00 -4°C° 0 mm 7 mps 747 mmHg 61%
    12:00 -4°C° 0 mm 7 mps 748 mmHg 54%
    13:00 -3°C° 0 mm 6 mps 749 mmHg 47%
    14:00 -4°C° 0 mm 6 mps 749 mmHg 48%
    15:00 -4°C° 0 mm 6 mps 750 mmHg 48%
    16:00 -5°C° 0 mm 6 mps 750 mmHg 49%
    17:00 -5°C° 0 mm 6 mps 751 mmHg 50%
    18:00 -6°C° 0 mm 5 mps 751 mmHg 52%
    19:00 -7°C° 0 mm 5 mps 752 mmHg 53%
    20:00 -7°C° 0 mm 5 mps 753 mmHg 51%
    21:00 -7°C° 0 mm 5 mps 753 mmHg 48%
    22:00 -7°C° 0 mm 5 mps 754 mmHg 45%
    23:00 -7°C° 0 mm 4 mps 754 mmHg 44%

    Day after tomorrow, 23 February, Saturday

    Time Temperature Precipitation Wind Pressure Humidity
    00:00 -7°C° 0 mm 4 mps 754 mmHg 44%
    01:00 -7°C° 0 mm 4 mps 754 mmHg 43%
    02:00 -7°C° 0 mm 4 mps 754 mmHg 44%
    03:00 -8°C° 0 mm 4 mps 755 mmHg 45%
    04:00 -7°C° 0 mm 3 mps 755 mmHg 46%
    05:00 -7°C° 0 mm 3 mps 755 mmHg 47%
    06:00 -7°C° 0 mm 3 mps 755 mmHg 49%
    07:00 -7°C° 0 mm 3 mps 755 mmHg 50%
    08:00 -6°C° 0 mm 3 mps 755 mmHg 47%
    09:00 -7°C° 0 mm 4 mps 756 mmHg 44%
    10:00 -5°C° 0 mm 4 mps 756 mmHg 41%
    11:00 -4°C° 0 mm 4 mps 756 mmHg 38%
    12:00 -4°C° 0 mm 4 mps 756 mmHg 35%
    13:00 -2°C° 0 mm 3 mps 756 mmHg 32%
    14:00 -2°C° 0 mm 3 mps 755 mmHg 33%
    15:00 -2°C° 0 mm 3 mps 755 mmHg 33%
    16:00 -2°C° 0 mm 3 mps 755 mmHg 34%
    17:00 -3°C° 0 mm 2 mps 755 mmHg 38%
    18:00 -4°C° 0 mm 2 mps 755 mmHg 42%
    19:00 -2°C° 0 mm 1 mps 755 mmHg 46%
    20:00 -2°C° 0 mm 1 mps 755 mmHg 47%
    21:00 -4°C° 0 mm 0 mps 755 mmHg 47%
    22:00 -4°C° 0 mm 0 mps 755 mmHg 48%
    23:00 -4°C° 0 mm 0 mps 755 mmHg 48%

    24 February, Sunday

    Time Temperature Precipitation Wind Pressure Humidity
    00:00 -4°C° 0 mm 0 mps 755 mmHg 48%
    01:00 -3°C° 0 mm 1 mps 755 mmHg 48%
    02:00 -2°C° 0 mm 1 mps 754 mmHg 47%
    03:00 -2°C° 0 mm 1 mps 754 mmHg 45%
    04:00 -2°C° 0 mm 1 mps 754 mmHg 43%
    05:00 -2°C° 0 mm 1 mps 754 mmHg 43%
    06:00 -2°C° 0 mm 1 mps 754 mmHg 43%
    07:00 -2°C° 0 mm 1 mps 754 mmHg 42%
    08:00 -1°C° 0 mm 1 mps 753 mmHg 38%
    09:00 0°C° 0 mm 1 mps 753 mmHg 34%
    10:00 +1°C° 0 mm 1 mps 753 mmHg 29%
    11:00 +2°C° 0 mm 1 mps 753 mmHg 28%
    12:00 +2°C° 0 mm 2 mps 753 mmHg 27%
    13:00 +3°C° 0 mm 2 mps 753 mmHg 26%
    14:00 +3°C° 0 mm 2 mps 752 mmHg 30%
    15:00 +3°C° 0 mm 2 mps 752 mmHg 33%
    16:00 +3°C° 0 mm 2 mps 752 mmHg 37%
    17:00 +2°C° 0 mm 2 mps 752 mmHg 40%
    18:00 +1°C° 0 mm 2 mps 752 mmHg 42%
    19:00 -2°C° 0 mm 2 mps 752 mmHg 45%
    20:00 -2°C° 0 mm 2 mps 752 mmHg 46%
    21:00 -2°C° 0 mm 2 mps 752 mmHg 47%
    22:00 -2°C° 0 mm 2 mps 752 mmHg 48%
    23:00 -2°C° 0 mm 2 mps 752 mmHg 49%

    25 February, Monday

    Time Temperature Precipitation Wind Pressure Humidity
    00:00 -2°C° 0 mm 2 mps 752 mmHg 50%
    01:00 -2°C° 0 mm 2 mps 752 mmHg 51%
    02:00 -2°C° 0 mm 3 mps 752 mmHg 52%
    03:00 -2°C° 0 mm 3 mps 752 mmHg 54%
    04:00 -2°C° 0 mm 3 mps 752 mmHg 55%
    05:00 -2°C° 0 mm 3 mps 752 mmHg 58%
    06:00 -2°C° 0 mm 3 mps 752 mmHg 60%
    07:00 -2°C° 0 mm 3 mps 752 mmHg 62%
    08:00 -1°C° 0 mm 4 mps 752 mmHg 61%
    09:00 0°C° 0 mm 4 mps 752 mmHg 59%
    10:00 +3°C° 0 mm 4 mps 752 mmHg 57%
    11:00 +4°C° 0 mm 4 mps 752 mmHg 57%
    12:00 +3°C° 0 mm 5 mps 751 mmHg 57%
    13:00 +5°C° 0 mm 5 mps 751 mmHg 58%
    14:00 +5°C° 0 mm 4 mps 751 mmHg 61%
    15:00 +5°C° 0 mm 4 mps 751 mmHg 64%
    16:00 +5°C° 0 mm 4 mps 750 mmHg 67%
    17:00 +3°C° 0 mm 3 mps 751 mmHg 73%
    18:00 +2°C° 0 mm 3 mps 751 mmHg 78%
    19:00 +1°C° 0 mm 3 mps 751 mmHg 83%
    20:00 +1°C° 0 mm 3 mps 751 mmHg 85%
    21:00 +1°C° 0 mm 3 mps 750 mmHg 87%
    22:00 0°C° 0 mm 3 mps 750 mmHg 88%
    23:00 0°C° 0 mm 3 mps 750 mmHg 89%

    26 February, Tuesday

    Time Temperature Precipitation Wind Pressure Humidity
    00:00 0°C° 0 mm 3 mps 750 mmHg 89%
    01:00 0°C° 0 mm 3 mps 749 mmHg 90%
    02:00 -1°C° 0 mm 4 mps 749 mmHg 89%
    03:00 -1°C° 0 mm 4 mps 748 mmHg 89%
    04:00 -1°C° 0 mm 5 mps 748 mmHg 88%
    05:00 -1°C° 0 mm 5 mps 747 mmHg 88%
    06:00 0°C° 0 mm 5 mps 747 mmHg 87%
    07:00 -1°C° 0 mm 6 mps 746 mmHg 87%
    08:00 +1°C° 0 mm 6 mps 746 mmHg 81%
    09:00 +2°C° 0 mm 6 mps 745 mmHg 76%
    10:00 +4°C° 0 mm 7 mps 745 mmHg 71%
    11:00 +4°C° 0 mm 7 mps 744 mmHg 69%
    12:00 +4°C° 0 mm 7 mps 744 mmHg 67%
    13:00 +5°C° 0 mm 7 mps 743 mmHg 66%
    14:00 +4°C° 0.3 mm 7 mps 743 mmHg 69%
    15:00 +4°C° 0.3 mm 7 mps 742 mmHg 73%
    16:00 +4°C° 0.3 mm 7 mps 742 mmHg 77%
    17:00 +3°C° 0 mm 7 mps 742 mmHg 79%
    18:00 +3°C° 0 mm 6 mps 742 mmHg 82%
    19:00 +3°C° 0 mm 6 mps 742 mmHg 84%
    20:00 +2°C° 0 mm 6 mps 742 mmHg 86%
    21:00 +2°C° 0 mm 6 mps 743 mmHg 88%
    22:00 +2°C° 0 mm 6 mps 743 mmHg 90%
    23:00 +1°C° 0 mm 6 mps 743 mmHg 88%
    Show more